www.pogodaiklimat.ru

Погода и климат >> Архив погоды >> Антарктида >> San Martin Base


ПОГОДА в San Martin Base

  • Прогноз погоды в San Martin Base
  • Монитор погоды в San Martin Base
  • Климат города

АРХИВ ПОГОДЫ в San Martin Base

Время (UTC), дата Ветер
(напр.,м/с)
 
Видим.   Явления Облачность Т
(С)
Тd
(С)
f
(%)
Тe
(С)
Тes
(С)
Комфортность P
(гПа)
Po
(гПа)
Тmin
(С)
Tmax
(С)
R
(мм)
R24
(мм)
S
(см)
12 15.11 Ю 3 20 км 9/0
[Cs]
-1.6 -3.3 88 -7 -4 984.8 983.8 -3.6 +0.4 0.5 0
15 15.11 штиль 0 20 км 10/0
[As trans Cs]
+1.0 -4.6 66 0 +7 984.3 983.4
18 15.11 ЮВ 2 20 км 10/0
[Ac As Cs]
+1.8 -1.9 76 -1 +4 984.0 983.0
21 15.11 С 2 20 км 10/0
[Ac As Cs]
+2.4 -2.2 72 0 +3 983.6 982.6
00 16.11 СЗ 2 20 км 10/0
[Ac As Cs]
+3.4 -2.2 67 +1 +1 983.2 982.2 -1.6 +4.0
03 16.11 С 2 20 км 10/0
[Ac As Cs]
+3.6 -3.4 60 +1 +1 982.3 981.4
06 16.11 С 2 20 км 10/5 300 м
[St Ac As]
+2.4 -0.9 79 -1 -1 982.2 981.3
09 16.11 СВ 4 20 км 8/5 600 м
[Sc Ac As]
+2.8 -4.4 59 -2 -1 982.4 981.4
12 16.11 СВ 9 20 км 10/0
[Ac As Cs]
+2.8 -4.1 60 -4 -3 982.7 981.8 +1.6 +4.6 0
15 16.11 СВ 6 20 км 9/0
[Ac As Cs]
+5.2 -4.0 51 +1 +3 983.2 982.4
18 16.11 С 4 20 км 8/3 1350 м
[Sc Ac As Cs]
+3.0 -2.1 69 -1 +1 984.0 983.0
21 16.11 Ю 1 20 км 8/1 1200 м
[Sc diur, vesp Ci]
+4.6 -2.7 59 +4 +8 984.6 983.7
00 17.11 штиль 0 20 км 9/5 750 м
[Sc diur, vesp Ac As]
+2.4 -2.8 69 +2 +2 985.0 984.1 +2.0 +6.0
03 17.11 ЮВ 2 20 км 9/5 900 м
[Sc diur, vesp Ac As]
+1.2 -3.0 74 -1 -1 985.4 984.5
06 17.11 В 3 20 км 6/5 900 м
[Sc Ac As]
+1.2 -3.0 74 -3 -3 984.5 983.6
09 17.11 ЮВ 1 20 км 8/6 900 м
[Sc Ac As]
+0.2 -3.5 76 -2 -1 984.0 983.0
12 17.11 штиль 0 3000 м слабый снег 10/8 210 м
[St Ac As]
+0.4 -2.6 80 -1 -0 983.4 982.5 -0.6 +3.0 0.0 0
15 17.11 ЮВ 3 3500 м слабый снег 10/6 240 м
[St Ac As]
-0.4 -1.0 96 -5 -5 981.9 981.0
18 17.11 штиль 0 10 км слабый снег 10/3 1200 м
[Sc Ac As]
0.0 -1.1 92 -1 +1 979.9 979.0 0.6
21 17.11 Ю 2 2000 м слабый снег 10/10 210 м
[St]
-0.4 -1.6 92 -4 -4 978.6 977.7
00 18.11 СВ 3 20 км {снег} 10/6 450 м
[St Ac As]
+1.4 -3.6 69 -3 -3 976.6 975.7 -0.4 +1.4 0.2
03 18.11 Ю 4 20 км осадки на расстоянии 10/6 240 м
[St Ac As]
+1.0 -4.2 68 -4 -4 974.4 973.4
06 18.11 СВ 10 20 км 10/3 1350 м
[Sc Ac As]
+0.4 -5.8 63 -7 -7 972.8 971.8
09 18.11 СВ 10 20 км 9/0
[Ac As Cs]
-1.0 -8.1 59 -9 -9 974.3 973.4
12 18.11 СВ 8 20 км 9/0
[Ac As Cs]
+0.5 -7.6 55 -6 -6 975.9 975.0 -2.5 +2.0 0.8 0
15 18.11 В 3 20 км 9/5 900 м
[Sc Cs]
+2.0 -4.8 61 -2 +1 978.0 977.0
18 18.11 ЮВ 2 20 км 8/4 900 м
[Sc Ac As]
+3.4 -6.8 47 +2 +5 979.7 978.8
21 18.11 СВ 2 20 км 4/0
[Ac As Cs]
+2.4 -5.8 55 0 +4 981.4 980.5
00 19.11 В 8 30 км 8/0
[Cs]
-0.8 -7.6 60 -8 -8 983.0 982.1 -0.8 +3.6
03 19.11 В 7 20 км 5/0
[Cs]
-2.2 -7.1 69 -10 -10 984.5 983.6
06 19.11 В 5 20 км 4/0
[Ci fib]
-2.2 -9.8 56 -8 -8 986.1 985.2
09 19.11 С 2 20 км 4/0
[Ci fib]
-1.8 -10.2 53 -5 -4 987.8 986.9
12 19.11 С 3 20 км 3/0
[Ci fib]
-0.8 -8.7 55 -5 -1 989.3 988.4 -3.2 -0.6 0
15 19.11 Ю 1 20 км 3/0
[Cs]
+0.6 -6.2 60 -1 +10 990.5 989.6
18 19.11 СЗ 2 20 км 3/0
[Cs]
+1.6 -4.9 62 -1 +9 991.3 990.4
21 19.11 СЗ 3 20 км 3/0
[Cs]
+1.0 -3.9 70 -3 +1 991.7 990.8
00 20.11 С 2 20 км 1/0
[Ac As]
-0.2 -3.8 77 -4 -3 992.1 991.2 -1.4 +3.4
03 20.11 С 4 20 км 5/0
[Ac und Cs]
-2.4 -5.8 77 -8 -8 991.1 990.2
06 20.11 С 2 5000 м осадки на расстоянии 10/6 240 м
[St Ac As]
-1.6 -4.9 78 -5 -5 990.6 989.7
09 20.11 СЗ 8 4000 м слабый снег 10/10 240 м
[St]
-3.0 -3.6 96 -11 -11 990.5 989.6
12 20.11 СЗ 4 5000 м слабый снег 10/10 210 м
[St]
-3.2 -3.9 95 -10 -10 990.5 989.6 -4.0 -0.2 1 2
15 20.11 СЗ 3 20 км слабый снег 10/10 150 м
[St]
-2.8 -4.1 91 -8 -8 989.9 989.0
18 20.11 С 2 5000 м слабый снег 10/10 150 м
[St]
-2.0 -3.9 87 -5 -5 989.9 989.0 0.8
21 20.11 Ю 2 5000 м слабый снег 10/10 150 м
[St]
-2.2 -3.7 89 -6 -6 989.8 988.9
00 21.11 СЗ 3 8000 м осадки на расстоянии {снег} 10/10 150 м
[St]
-1.8 -2.6 94 -7 -7 990.2 989.3 -3.8 -1.0 0.3
06 21.11 С 2 20 км {снег} 9/6 120 м
[St Cs]
-4.0 -4.7 95 -8 -8 992.8 991.8 0.6
09 21.11 С 3 20 км 8/8 210 м
[St]
-6.0 -6.7 95 -11 -11 994.5 993.6
12 21.11 С 4 <100 м туман ?/? -6.6 -6.6 100 -14 -14 995.2 994.2 -7.0 -1.6 2 0
15 21.11 С 2 800 м туман 10/10 30 м
[St]
-4.2 -4.2 100 -9 -9 995.3 994.4
18 21.11 С 3 20 км {туман} 10/10 60 м
[St]
-3.4 -3.4 100 -8 -8 994.8 993.8
21 21.11 Ю 2 4000 м дымка 10/10 60 м
[St]
-3.4 -3.7 98 -8 -8 994.3 993.4
00 22.11 Ю 3 300 м туман 8/8 60 м
[St]
-4.6 -5.3 95 -10 -10 992.5 991.6 -7.0 -2.0
03 22.11 ЮВ 2 500 м туман 9/9 60 м
[St]
-5.4 -6.1 95 -10 -10 990.1 989.2
06 22.11 С 2 800 м туман 6/0
[Ci fib]
-7.4 -8.2 94 -12 -12 987.8 986.9

 

Местоположение метеостанции San Martin Base (Антарктида): широта -68.11 долгота -67.13 высота над уровнем моря 4 м.

В архиве по умолчанию представлена погода в San Martin Base за последнюю неделю. Архивные данные за месяц целиком и за предыдущие месяцы, начиная с января 2011 года, Вы можете получить, выбрав интересующий диапазон дат из раскрывающегося списка и нажав кнопку "Ввод!".

Внимание! Время в таблицах - всемирное. Для получения местного времени необходимо прибавить поправку, которая в San Martin Base равна 0 ч.

Смотрите также архив погоды в соседних городах и на ближайших метеорологических станциях:

Погода в Rothera (Антарктида) (74 км)
Погода в Larsen Ice Shelf (Антарктида) (267 км)
Погода в Vernadsky (Антарктида) (342 км)
Погода в Fossil Bluff (Антарктида) (361 км)
Погода в Palmer Station (Антарктида) (396 км)
Погода в Butler Island (Антарктида) (525 км)
Погода в Marambio Base (Антарктида) (635 км)
Погода в Bernardo o`Higgins (Антарктида) (679 км)
Погода в Juan Carlos Island (Антарктида) (681 км)
Погода в Esperanza Base (Антарктида) (698 км)

Пояснения к столбцам:

Ветер - указаны скорость ветра в м/с - средняя за 10 мин, порывы в срок и между сроками (в фигурных скобках) и направление, откуда дует ветер: С - северный, СВ - северо-восточный, В - восточный, ЮВ - юго-восточный, Ю - южный, ЮЗ - юго-западный, З - западный, СЗ - северо-западный.
Видимость - горизонтальная дальность видимости в метрах или километрах. При видимости от 1 до 10 км при отсутствии осадков обычно наблюдается дымка, при ухудшении видимости до 1 км и менее - туман. В сухую погоду видимость может ухудшаться дымом, пылью или мглою.
Явления - указаны атмосферные явления, наблюдавшиеся в срок или в последний час перед сроком; фигурными скобками обозначены явления, наблюдавшиеся между сроками (за 1-3 часа до срока); квадратными скобками обозначены град или гололедные отложения с указанием их диаметра в мм.
Облачность - указаны через наклонную черту общая и нижняя облачность в баллах и высота нижней границы облаков в метрах; квадратными скобками обозначены формы облаков: Ci - перистые, Cs - перисто-слоистые, Cc - перисто-кучевые, Ac - высококучевые, As - высокослоистые, Sc - слоисто-кучевые, Ns - слоисто-дождевые, Cu - кучевые, Cb - кучево-дождевые. Подробнее классификацию облаков см. в Атласе облаков (PDF).
T - Температура воздуха - температура, измеренная на высоте 2 м над землей.
Td - Температура точки росы - температура, при понижении до которой содержащийся в воздухе водяной пар достигнет насыщения.
f - Относительная влажность воздуха - влажноcть воздуха, измеренная на высоте 2 м над землей.
Te - Эффективная температура - температура, которую ощущает одетый по сезону человек в тени. Характеристика душности погоды. При расчете учитывается влияние влажности воздуха и скорости ветра на теплоощущения человека.
Tes - Эффективная температура на солнце - температура, которую ощущает человек, с поправкой на солнечный нагрев. Характеристика знойности погоды. Зависит от высоты солнца над горизонтом, облачности и скорости ветра. Ночью, в пасмурную погоду, а также при ветре 12 м/с и более поправка равна нулю.
P - Атмосферное давление - приведенное к уровню моря атмосферное давление.
Po - Атмосферное давление - измеренное на уровне метеостанции атмосферное давление.
Tmin - Минимальная температура - минимум температуры воздуха на высоте 2 м над землей.
Tmax - Максимальная температура - максимум температуры воздуха на высоте 2 м над землей.
R - Количество осадков - Количество выпавших осадков за период времени, мм. При наведении курсора мыши на число - период времени, за который выпало указанное количество осадков.
R24 - Количество осадков - Количество выпавших осадков за 24 часа, мм.
S - Снежный покров - Высота снежного покрова, см. При наведении курсора мыши на число - состояние снежного покрова и степень покрытия местности в баллах.